Location: Recife
(8.0585°S, 34.8848°W)
Time: 22:06:38
(UTC-03:00)

Vanguard 3 - Pass Details

Date: 15 April 2026
Orbit: 507 x 3205 km, 33.4° (Epoch: 12 May)

Event Time Altitude Azimuth Distance (km) Brightness Sun altitude
Rises 08:12:53 0° 292° (WNW) 4,862 10.8 40.2°
Reaches altitude 10° 08:15:37 10° 289° (WNW) 4,175 10.5 40.8°
Maximum altitude 08:27:48 64° 210° (SSW) 2,798 10.2 43.6°
Drops below altitude 10° 08:46:36 10° 131° (SE) 6,111 12.0 47.9°
Sets 08:51:40 0° 127° (SE) 7,156 12.2 49.0°
